Meteo orario Zagrody

Oggi, 29 Luglio, Giovedi

Tempo Temperatura Precipitazioni Vento Pressione Umidità
00:00 +18°C° 0 mm 3 m/s 751 mm Hg 82%
01:00 +17°C° 0 mm 3 m/s 751 mm Hg 84%
02:00 +17°C° 0 mm 3 m/s 751 mm Hg 87%
03:00 +16°C° 0 mm 3 m/s 751 mm Hg 91%
04:00 +16°C° 0 mm 3 m/s 751 mm Hg 94%
05:00 +17°C° 0 mm 4 m/s 751 mm Hg 86%
06:00 +19°C° 0 mm 4 m/s 751 mm Hg 77%
07:00 +20°C° 0 mm 5 m/s 751 mm Hg 69%
08:00 +21°C° 0.1 mm 6 m/s 751 mm Hg 62%
09:00 +22°C° 0.1 mm 7 m/s 751 mm Hg 55%
10:00 +24°C° 0.1 mm 8 m/s 751 mm Hg 47%
11:00 +24°C° 0.1 mm 8 m/s 751 mm Hg 47%
12:00 +24°C° 0.1 mm 8 m/s 751 mm Hg 47%
13:00 +24°C° 0.1 mm 7 m/s 751 mm Hg 46%
14:00 +24°C° 0 mm 7 m/s 751 mm Hg 44%
15:00 +24°C° 0 mm 7 m/s 751 mm Hg 42%
16:00 +24°C° 0 mm 7 m/s 751 mm Hg 40%
17:00 +23°C° 0 mm 6 m/s 751 mm Hg 43%
18:00 +22°C° 0 mm 5 m/s 751 mm Hg 45%
19:00 +21°C° 0 mm 4 m/s 751 mm Hg 48%
20:00 +19°C° 0 mm 4 m/s 751 mm Hg 53%
21:00 +18°C° 0 mm 4 m/s 751 mm Hg 58%
22:00 +16°C° 0 mm 3 m/s 751 mm Hg 63%
23:00 +14°C° 0 mm 4 m/s 751 mm Hg 66%

Domani, 30 Luglio, Venerdi

Tempo Temperatura Precipitazioni Vento Pressione Umidità
00:00 +14°C° 0 mm 4 m/s 751 mm Hg 70%
01:00 +13°C° 0 mm 4 m/s 751 mm Hg 73%
02:00 +13°C° 0 mm 4 m/s 751 mm Hg 74%
03:00 +13°C° 0 mm 4 m/s 751 mm Hg 76%
04:00 +12°C° 0 mm 5 m/s 751 mm Hg 77%
05:00 +14°C° 0 mm 5 m/s 751 mm Hg 72%
06:00 +15°C° 0 mm 6 m/s 751 mm Hg 68%
07:00 +16°C° 0 mm 7 m/s 751 mm Hg 63%
08:00 +18°C° 0 mm 7 m/s 750 mm Hg 56%
09:00 +20°C° 0 mm 8 m/s 750 mm Hg 50%
10:00 +22°C° 0 mm 8 m/s 750 mm Hg 43%
11:00 +23°C° 0 mm 8 m/s 750 mm Hg 41%
12:00 +23°C° 0 mm 8 m/s 750 mm Hg 39%
13:00 +24°C° 0 mm 8 m/s 749 mm Hg 37%
14:00 +24°C° 0 mm 7 m/s 749 mm Hg 37%
15:00 +24°C° 0 mm 7 m/s 749 mm Hg 37%
16:00 +26°C° 0 mm 7 m/s 749 mm Hg 37%
17:00 +23°C° 0 mm 6 m/s 749 mm Hg 42%
18:00 +22°C° 0 mm 5 m/s 749 mm Hg 46%
19:00 +21°C° 0 mm 3 m/s 749 mm Hg 51%
20:00 +20°C° 0 mm 3 m/s 749 mm Hg 56%
21:00 +18°C° 0 mm 3 m/s 749 mm Hg 62%
22:00 +17°C° 0 mm 2 m/s 749 mm Hg 68%
23:00 +17°C° 0 mm 2 m/s 749 mm Hg 69%

Dopodomani, 31 Luglio, Sabato

Tempo Temperatura Precipitazioni Vento Pressione Umidità
00:00 +16°C° 0 mm 2 m/s 749 mm Hg 70%
01:00 +16°C° 0 mm 2 m/s 749 mm Hg 71%
02:00 +16°C° 0 mm 3 m/s 748 mm Hg 71%
03:00 +17°C° 0 mm 3 m/s 748 mm Hg 70%
04:00 +17°C° 0 mm 4 m/s 747 mm Hg 70%
05:00 +18°C° 0.1 mm 4 m/s 747 mm Hg 70%
06:00 +19°C° 0.1 mm 5 m/s 747 mm Hg 69%
07:00 +20°C° 0.1 mm 5 m/s 747 mm Hg 69%
08:00 +21°C° 0 mm 6 m/s 747 mm Hg 61%
09:00 +23°C° 0 mm 6 m/s 747 mm Hg 53%
10:00 +24°C° 0 mm 7 m/s 747 mm Hg 46%
11:00 +23°C° 0 mm 7 m/s 748 mm Hg 46%
12:00 +23°C° 0 mm 8 m/s 748 mm Hg 47%
13:00 +22°C° 0 mm 8 m/s 748 mm Hg 48%
14:00 +23°C° 0 mm 8 m/s 748 mm Hg 47%
15:00 +23°C° 0 mm 8 m/s 748 mm Hg 47%
16:00 +23°C° 0 mm 9 m/s 747 mm Hg 46%
17:00 +22°C° 0 mm 8 m/s 747 mm Hg 50%
18:00 +21°C° 0 mm 8 m/s 747 mm Hg 54%
19:00 +21°C° 0 mm 7 m/s 747 mm Hg 58%
20:00 +20°C° 0 mm 7 m/s 748 mm Hg 62%
21:00 +19°C° 0 mm 6 m/s 748 mm Hg 67%
22:00 +17°C° 0 mm 6 m/s 748 mm Hg 71%
23:00 +16°C° 0 mm 6 m/s 748 mm Hg 75%

1 Agosto, Domenica

Tempo Temperatura Precipitazioni Vento Pressione Umidità
00:00 +16°C° 0 mm 6 m/s 748 mm Hg 79%
01:00 +15°C° 0 mm 5 m/s 748 mm Hg 83%
02:00 +15°C° 0.1 mm 5 m/s 748 mm Hg 84%
03:00 +15°C° 0.1 mm 5 m/s 749 mm Hg 86%
04:00 +15°C° 0.1 mm 5 m/s 749 mm Hg 87%
05:00 +15°C° 0 mm 5 m/s 749 mm Hg 84%
06:00 +16°C° 0 mm 5 m/s 749 mm Hg 80%
07:00 +16°C° 0 mm 5 m/s 749 mm Hg 77%
08:00 +17°C° 0 mm 5 m/s 749 mm Hg 68%
09:00 +19°C° 0 mm 5 m/s 750 mm Hg 60%
10:00 +21°C° 0 mm 5 m/s 750 mm Hg 51%
11:00 +21°C° 0 mm 5 m/s 750 mm Hg 48%
12:00 +22°C° 0 mm 5 m/s 750 mm Hg 45%
13:00 +23°C° 0 mm 5 m/s 750 mm Hg 42%
14:00 +23°C° 0 mm 5 m/s 750 mm Hg 43%
15:00 +22°C° 0 mm 5 m/s 750 mm Hg 44%
16:00 +22°C° 0 mm 5 m/s 750 mm Hg 45%
17:00 +21°C° 0 mm 4 m/s 750 mm Hg 50%
18:00 +20°C° 0 mm 3 m/s 750 mm Hg 56%
19:00 +19°C° 0 mm 3 m/s 750 mm Hg 62%
20:00 +18°C° 0 mm 2 m/s 750 mm Hg 68%
21:00 +16°C° 0 mm 2 m/s 750 mm Hg 75%
22:00 +15°C° 0 mm 1 m/s 750 mm Hg 81%
23:00 +15°C° 0 mm 1 m/s 750 mm Hg 81%

2 Agosto, Lunedi

Tempo Temperatura Precipitazioni Vento Pressione Umidità
00:00 +15°C° 0 mm 2 m/s 750 mm Hg 80%
01:00 +15°C° 0 mm 2 m/s 750 mm Hg 80%
02:00 +15°C° 0 mm 2 m/s 750 mm Hg 79%
03:00 +16°C° 0 mm 3 m/s 750 mm Hg 78%
04:00 +16°C° 0 mm 3 m/s 750 mm Hg 77%
05:00 +16°C° 0 mm 3 m/s 750 mm Hg 75%
06:00 +17°C° 0 mm 4 m/s 750 mm Hg 72%
07:00 +18°C° 0 mm 4 m/s 750 mm Hg 69%
08:00 +19°C° 0 mm 5 m/s 750 mm Hg 64%
09:00 +19°C° 0 mm 5 m/s 750 mm Hg 58%
10:00 +20°C° 0 mm 6 m/s 750 mm Hg 53%
11:00 +21°C° 0 mm 6 m/s 750 mm Hg 49%
12:00 +22°C° 0 mm 6 m/s 750 mm Hg 45%
13:00 +22°C° 0 mm 7 m/s 750 mm Hg 40%
14:00 +22°C° 0 mm 6 m/s 750 mm Hg 42%
15:00 +21°C° 0 mm 6 m/s 751 mm Hg 43%
16:00 +21°C° 0 mm 6 m/s 751 mm Hg 45%
17:00 +20°C° 0 mm 5 m/s 751 mm Hg 49%
18:00 +19°C° 0 mm 5 m/s 751 mm Hg 53%
19:00 +19°C° 0 mm 4 m/s 751 mm Hg 57%
20:00 +17°C° 0 mm 4 m/s 751 mm Hg 63%
21:00 +15°C° 0 mm 4 m/s 751 mm Hg 70%
22:00 +13°C° 0 mm 4 m/s 751 mm Hg 77%
23:00 +13°C° 0 mm 4 m/s 752 mm Hg 79%

3 Agosto, Martedi

Tempo Temperatura Precipitazioni Vento Pressione Umidità
00:00 +12°C° 0 mm 4 m/s 752 mm Hg 81%
01:00 +12°C° 0 mm 4 m/s 752 mm Hg 84%
02:00 +12°C° 0 mm 4 m/s 752 mm Hg 87%
03:00 +11°C° 0 mm 4 m/s 752 mm Hg 90%
04:00 +11°C° 0 mm 4 m/s 752 mm Hg 93%
05:00 +12°C° 0.1 mm 4 m/s 752 mm Hg 87%
06:00 +14°C° 0.1 mm 5 m/s 752 mm Hg 82%
07:00 +16°C° 0.1 mm 5 m/s 753 mm Hg 76%
08:00 +17°C° 0.1 mm 5 m/s 753 mm Hg 70%
09:00 +19°C° 0.1 mm 5 m/s 753 mm Hg 63%
10:00 +21°C° 0.1 mm 4 m/s 753 mm Hg 57%
11:00 +21°C° 0.2 mm 4 m/s 753 mm Hg 54%
12:00 +22°C° 0.2 mm 4 m/s 753 mm Hg 51%
13:00 +22°C° 0.2 mm 4 m/s 753 mm Hg 47%
14:00 +22°C° 0 mm 4 m/s 753 mm Hg 47%
15:00 +22°C° 0 mm 4 m/s 753 mm Hg 47%
16:00 +22°C° 0 mm 3 m/s 753 mm Hg 47%
17:00 +21°C° 0 mm 3 m/s 753 mm Hg 52%
18:00 +20°C° 0 mm 3 m/s 753 mm Hg 57%
19:00 +19°C° 0 mm 3 m/s 753 mm Hg 63%
20:00 +17°C° 0 mm 2 m/s 753 mm Hg 69%
21:00 +16°C° 0 mm 2 m/s 753 mm Hg 76%
22:00 +14°C° 0 mm 2 m/s 753 mm Hg 83%
23:00 +14°C° 0 mm 2 m/s 753 mm Hg 83%
Mostrare altro

Abbiamo bisogno del tuo consenso

Meteoprog e i nostri fornitori di servizi possono memorizzare e accedere a dati personali come cookie, identificatori di dispositivi o altre tecnologie simili sul tuo dispositivo e possono elaborare tali dati per personalizzare i contenuti e gli annunci, nonché fornire funzionalità dei social media e analizzarne il traffico.

  • Archiviare e/o accedere alle informazioni sul tuo dispositivo

    Cookie, identificatori di dispositivi o altre informazioni possono essere memorizzati o resi accessibili sul tuo dispositivo per le finalità sopra indicate.

  • Annunci e contenuti personalizzati, misurazione di annunci e contenuti, approfondimenti sul pubblico e sviluppo di prodotti

    Gli annunci e i contenuti possono essere personalizzati in base a un profilo. È possibile aggiungere più dati per personalizzare meglio annunci e contenuti. È possibile misurare il rendimento degli annunci e dei contenuti. È possibile ricavare informazioni sul pubblico che ha visto gli annunci e i contenuti. Tali dati possono essere utilizzati per sviluppare o migliorare l'esperienza, i sistemi e il software dell'utente.

Cliccando su “Accetto”, acconsenti all'uso di cookie, identificatori di dispositivo, web beacon o altre tecnologie simili. Puoi modificare le impostazioni nel browser del tuo dispositivo.

Per determinati scopi, è possibile fare affidamento su interessi legali, piuttosto che sul consenso. Puoi approfondire questo argomento consultando la nostra Informativa sulla privacy e sui cookie.